www.pogodaiklimat.ru

Погода и климат >> Архив погоды >> Россия >> Красноярский край >> Роев Ручей


ПОГОДА в Роевом Ручье

  • Прогноз погоды в Роевом Ручье
  • Монитор погоды в Роевом Ручье

АРХИВ ПОГОДЫ в Роевом Ручье

Время (UTC), дата Ветер
(напр.,м/с)
 
Видим.   Явления Облачность Т
(С)
Тd
(С)
f
(%)
Тe
(С)
Тes
(С)
Комфортность P
(гПа)
Po
(гПа)
Тmin
(С)
Tmax
(С)
R
(мм)
R24
(мм)
S
(см)
21 16.05 СЗ 1 н/о н/о +1.5 -4.4 65 0 0 1020.3 994.1
00 17.05 СЗ 2 н/о н/о +1.6 -4.1 66 -1 -1 1021.5 995.3 +1.1
06 17.05 З 2 н/о н/о +10.6 -8.1 26 +10 +10 1019.8 994.4
09 17.05 СЗ 4
{13}
н/о н/о +11.8 -9.4 22 +10 +10 1019.4 994.1
12 17.05 СЗ 1 н/о н/о +11.3 -5.6 30 +12 +12 1020.2 994.9
15 17.05 З 2 н/о н/о +5.0 -5.2 48 +3 +3 1022.2 996.2
18 17.05 СЗ 1 н/о н/о +5.3 -3.9 51 +5 +5 1023.6 997.6
21 17.05 СЗ 2 н/о н/о +2.3 -4.1 63 -0 -0 1023.4 997.2
00 18.05 СЗ 1 н/о н/о +3.6 -3.1 62 +3 +3 1024.0 997.9 +1.3
06 18.05 З 1 н/о н/о +13.5 -5.7 26 +14 +14 1020.6 995.4
09 18.05 З 1 н/о н/о +14.6 -7.0 22 +15 +15 1018.2 993.2
12 18.05 СЗ 1 н/о н/о +13.4 -5.9 26 +14 +14 1017.4 992.3 +15.6
15 18.05 З 1 н/о н/о +7.4 -4.7 42 +7 +7 1017.0 991.4
18 18.05 штиль 0 н/о н/о +4.8 -4.9 49 +4 +4 1016.5 990.7
21 18.05 штиль 0 н/о н/о +1.8 -5.0 61 +1 +1 1015.9 989.9
00 19.05 штиль 0 н/о н/о +3.6 -2.4 65 +3 +3 1014.9 989.0 +1.1
03 19.05 С 1 н/о н/о +12.6 -2.7 34 +13 +13 1012.2 987.2
06 19.05 СЗ 3 н/о н/о +21.5 -7.1 14 +20 +20 1008.8 984.6
09 19.05 СЗ 2 н/о н/о +22.6 -6.4 14 +21 +21 комфорт 1006.9 982.9
12 19.05 З 1 н/о н/о +24.4 -6.0 13 +22 +22 комфорт 1005.5 981.6 +25.2
15 19.05 З 1 н/о н/о +15.7 -3.7 26 +17 +17 1005.6 981.0
18 19.05 СЗ 1 н/о н/о +13.5 -0.7 38 +14 +14 1006.1 981.3
21 19.05 штиль 0 н/о н/о +10.2 -0.2 48 +10 +10 1006.2 981.1
00 20.05 З 1 н/о н/о +10.9 +1.4 52 +11 +11 1006.5 981.5 +9.4
03 20.05 СЗ 2 н/о н/о +12.5 +8.7 78 +12 +12 1007.3 982.4
06 20.05 СЗ 3
{10}
н/о н/о +19.6 +8.7 49 +21 +21 комфорт 1005.4 981.2
09 20.05 СЗ 3
{11}
н/о н/о +21.2 +6.7 39 +22 +22 комфорт 1004.2 980.2
12 20.05 СЗ 2
{10}
н/о н/о +20.6 +7.2 42 +22 +22 комфорт 1004.3 980.2 +22.6 0.6
15 20.05 З 1 н/о н/о +15.7 +5.7 51 +17 +17 1005.2 980.7
18 20.05 штиль 0 н/о н/о +10.4 +4.9 69 +10 +10 1004.3 979.4
21 20.05 штиль 0 н/о н/о +9.5 +4.9 73 +9 +9 1002.9 977.9
00 21.05 штиль 0 н/о н/о +10.5 +6.1 74 +10 +10 1000.8 975.9 +9.0
03 21.05 З 1 н/о н/о +11.0 +10.6 97 +11 +11 998.2 973.5
06 21.05 СЗ 4 н/о н/о +18.1 +11.3 64 +18 +18 995.3 971.2
09 21.05 СЗ 5-11
{13}
н/о н/о +17.3 +7.2 51 +17 +17 998.3 974.1
12 21.05 СЗ 4
{12}
н/о н/о +13.2 +5.9 61 +12 +12 1001.2 976.6 +18.1 9
15 21.05 З 2 н/о н/о +11.3 +3.8 60 +10 +10 1002.4 977.6
18 21.05 штиль 0 н/о н/о +8.0 +4.2 77 +7 +7 1003.0 977.9
21 21.05 штиль 0 н/о н/о +7.2 +7.1 99 +6 +6 1002.1 976.9
00 22.05 СЗ 2 н/о н/о +9.0 +6.0 81 +7 +7 1003.1 978.0 +6.9 1
03 22.05 СЗ 3
{11}
н/о н/о +11.7 +1.2 48 +10 +10 1003.7 978.8
06 22.05 СЗ 5-11
{13}
н/о н/о +11.1 +3.4 59 +9 +9 1005.8 980.9
09 22.05 СЗ 3
{11}
н/о н/о +14.1 +2.4 45 +13 +13 1005.2 980.5
12 22.05 СЗ 3 н/о н/о +15.5 +1.2 38 +15 +15 1004.0 979.5 +15.9
15 22.05 З 1 н/о н/о +8.5 +3.2 69 +8 +8 1004.8 979.6
18 22.05 З 1 н/о н/о +4.7 +3.2 90 +3 +3 1004.1 978.6

 

Местоположение метеостанции Роев Ручей (Красноярский край, Россия): широта 55.97 долгота 92.73 высота над уровнем моря 270 м.

В архиве по умолчанию представлена погода в Роевом Ручье за последнюю неделю. Архивные данные за месяц целиком и за предыдущие месяцы, начиная с января 2011 года, Вы можете получить, выбрав интересующий диапазон дат из раскрывающегося списка и нажав кнопку "Ввод!".


*Определитесь, кто Вы:
робот инопланетянин человек

Внимание! Время в таблицах - всемирное. Для получения местного времени необходимо прибавить поправку, которая равна 7 ч.

Смотрите также архив погоды в соседних городах и на ближайших метеорологических станциях:

Погода в Красноярске (Красноярский край, Россия) (7 км)
Погода в Минино (Красноярский край, Россия) (11 км)
Погода в Емельяново (Красноярский край, Россия) (27 км)
Погода в Шумихе (Красноярский край, Россия) (27 км)
Погода в Каче (Красноярский край, Россия) (37 км)
Погода в Погорельском Бору (Красноярский край, Россия) (47 км)
Погода в Железногорске (Красноярский край, Россия) (58 км)
Погода в Кемчуге (Красноярский край, Россия) (67 км)
Погода в Сухобузимском (Красноярский край, Россия) (68 км)
Погода в Шалинском (Красноярский край, Россия) (69 км)

Пояснения к столбцам:

Ветер - указаны скорость ветра в м/с - средняя за 10 мин, порывы в срок и между сроками (в фигурных скобках) и направление, откуда дует ветер: С - северный, СВ - северо-восточный, В - восточный, ЮВ - юго-восточный, Ю - южный, ЮЗ - юго-западный, З - западный, СЗ - северо-западный.
Видимость - горизонтальная дальность видимости в метрах или километрах. При видимости от 1 до 10 км при отсутствии осадков обычно наблюдается дымка, при ухудшении видимости до 1 км и менее - туман. В сухую погоду видимость может ухудшаться дымом, пылью или мглою.
Явления - указаны атмосферные явления, наблюдавшиеся в срок или в последний час перед сроком; фигурными скобками обозначены явления, наблюдавшиеся между сроками (за 1-3 часа до срока); квадратными скобками обозначены град или гололедные отложения с указанием их диаметра в мм.
Облачность - указаны через наклонную черту общая и нижняя облачность в баллах и высота нижней границы облаков в метрах; квадратными скобками обозначены формы облаков: Ci - перистые, Cs - перисто-слоистые, Cc - перисто-кучевые, Ac - высококучевые, As - высокослоистые, Sc - слоисто-кучевые, Ns - слоисто-дождевые, Cu - кучевые, Cb - кучево-дождевые. Подробнее классификацию облаков см. в Атласе облаков (PDF).
T - Температура воздуха - температура, измеренная на высоте 2 м над землей.
Td - Температура точки росы - температура, при понижении до которой содержащийся в воздухе водяной пар достигнет насыщения.
f - Относительная влажность воздуха - влажноcть воздуха, измеренная на высоте 2 м над землей.
Te - Эффективная температура - температура, которую ощущает одетый по сезону человек в тени. Характеристика душности погоды. При расчете учитывается влияние влажности воздуха и скорости ветра на теплоощущения человека.
Tes - Эффективная температура на солнце - температура, которую ощущает человек, с поправкой на солнечный нагрев. Характеристика знойности погоды. Зависит от высоты солнца над горизонтом, облачности и скорости ветра. Ночью, в пасмурную погоду, а также при ветре 12 м/с и более поправка равна нулю.
P - Атмосферное давление - приведенное к уровню моря атмосферное давление.
Po - Атмосферное давление - измеренное на уровне метеостанции атмосферное давление.
Tmin - Минимальная температура - минимум температуры воздуха на высоте 2 м над землей.
Tmax - Максимальная температура - максимум температуры воздуха на высоте 2 м над землей.
R - Количество осадков - Количество выпавших осадков за период времени, мм. При наведении курсора мыши на число - период времени, за который выпало указанное количество осадков.
R24 - Количество осадков - Количество выпавших осадков за 24 часа, мм.
S - Снежный покров - Высота снежного покрова, см. При наведении курсора мыши на число - состояние снежного покрова и степень покрытия местности в баллах.